{"data":{"norad_id":59301,"epoch":"2026-05-24T01:14:35.014560Z","epoch_age_seconds":150292,"freshness":"FRESH","line1":"1 59301U 24056F   26144.05179415 -.00000339  00000+0 -27863-5 0  9991","line2":"2 59301  42.9986 157.8560 0001570 264.5907  95.4765 15.27576137122764","mean_motion":15.27576137,"eccentricity":0.000157,"inclination_deg":42.9986,"raan_deg":157.856,"arg_perigee_deg":264.5907,"mean_anomaly_deg":95.4765,"bstar":-2.7863e-6,"rev_number":12276,"period_min":94.266987099446,"perigee_km":481.9834552426,"apogee_km":484.13787130887,"semimajor_km":6861.1976632757,"source":"CELESTRAK","updated_at":"2026-05-25T13:38:18.898422Z"}}